TimePDT,TemperatureF,Dew PointF,Humidity,Sea Level PressureIn,VisibilityMPH,Wind Direction,Wind SpeedMPH,Gust SpeedMPH,PrecipitationIn,Events,Conditions,WindDirDegrees,DateUTC
12:55 AM,55.9,39.0,53,29.87,10.0,Calm,Calm,-,N/A,,Clear,0,2012-09-24 07:55:00
1:55 AM,57.0,41.0,55,29.88,10.0,Calm,Calm,-,N/A,,Clear,0,2012-09-24 08:55:00
2:55 AM,61.0,42.1,50,29.87,10.0,NW,8.1,-,N/A,,Clear,320,2012-09-24 09:55:00
3:55 AM,59.0,43.0,55,29.87,10.0,NNW,3.5,-,N/A,,Clear,330,2012-09-24 10:55:00
4:55 AM,54.0,42.1,64,29.88,10.0,East,3.5,-,N/A,,Clear,90,2012-09-24 11:55:00
5:55 AM,54.0,46.0,75,29.89,10.0,NNE,5.8,-,N/A,,Clear,30,2012-09-24 12:55:00
6:55 AM,53.1,46.9,80,29.91,10.0,NE,3.5,-,N/A,,Clear,40,2012-09-24 13:55:00
7:55 AM,57.0,48.9,74,29.93,10.0,NNW,6.9,-,N/A,,Clear,330,2012-09-24 14:55:00
8:55 AM,62.1,52.0,70,29.94,10.0,NW,6.9,-,N/A,,Clear,320,2012-09-24 15:55:00
9:55 AM,64.9,51.1,61,29.95,10.0,Variable,6.9,-,N/A,,Clear,0,2012-09-24 16:55:00
10:55 AM,72.0,52.0,49,29.94,10.0,Variable,5.8,-,N/A,,Clear,0,2012-09-24 17:55:00
11:55 AM,75.2,51.8,44,29.91,10.0,NNW,9.2,-,N/A,,Clear,330,2012-09-24 18:55:00
12:55 PM,79.0,50.0,36,29.90,10.0,NW,4.6,-,N/A,,Clear,310,2012-09-24 19:55:00
1:55 PM,82.0,48.0,30,29.87,10.0,West,8.1,-,N/A,,Clear,270,2012-09-24 20:55:00
2:55 PM,84.0,50.0,31,29.85,10.0,WNW,9.2,-,N/A,,Clear,290,2012-09-24 21:55:00
3:55 PM,84.9,46.9,27,29.84,10.0,NNW,6.9,-,N/A,,Clear,330,2012-09-24 22:55:00
4:55 PM,84.9,48.0,28,29.83,10.0,NW,5.8,-,N/A,,Clear,320,2012-09-24 23:55:00
5:55 PM,82.9,46.9,28,29.82,10.0,WNW,8.1,-,N/A,,Clear,290,2012-09-25 00:55:00
6:55 PM,79.0,48.0,34,29.82,10.0,WNW,10.4,-,N/A,,Clear,290,2012-09-25 01:55:00
7:55 PM,75.0,48.9,40,29.83,10.0,NW,11.5,-,N/A,,Clear,310,2012-09-25 02:55:00
8:55 PM,72.0,51.1,48,29.84,10.0,West,9.2,-,N/A,,Clear,280,2012-09-25 03:55:00
9:55 PM,69.1,48.0,47,29.85,10.0,West,8.1,-,N/A,,Clear,270,2012-09-25 04:55:00
10:55 PM,66.9,46.0,47,29.84,10.0,WNW,4.6,-,N/A,,Clear,290,2012-09-25 05:55:00
11:55 PM,63.0,46.9,56,29.84,10.0,North,3.5,-,N/A,,Clear,350,2012-09-25 06:55:00